Regional Weather Roundup
Issued by NWS

Home | Current Version | Previous Version | Graphics & Text | Print | Product List | Glossary On
Versions: 1 2 3 4 5 6 7 8 9 10 11 12 13 14 15 16 17 18 19 20 21 22 23 24 25 26 27 28 29 30 31 32 33 34 35 36 37 38 39 40 41 42 43 44 45 46 47 48 49 50
000
ASUS45 KBOI 271610
RWRID
WEATHER ROUNDUP FOR IDAHO
NATIONAL WEATHER SERVICE BOISE ID
1000 AM MDT SUN JUL 27 2014

NOTE: "FAIR" INDICATES FEW OR NO CLOUDS BELOW 12000 FEET
WITH NO SIGNIFICANT WEATHER AND/OR OBSTRUCTIONS TO VISIBILITY

IDZ012-014-271700-
SOUTHWEST IDAHO


CITY           SKY/WX    TMP DP  RH WIND       PRES   REMARKS
BOISE          SUNNY     79  32  18 E5        30.14S
CALDWELL       SUNNY     70  39  32 CALM      30.16S
MOUNTAIN HOME  SUNNY     76  35  22 SE5       30.15R
$$

IDZ016-017-271700-
SOUTHCENTRAL IDAHO


CITY           SKY/WX    TMP DP  RH WIND       PRES   REMARKS
BURLEY         SUNNY     72  44  36 NE9       30.21S
JEROME         SUNNY     75  43  31 E7        30.21R
TWIN FALLS     SUNNY     82  30  15 NE7       30.21R
$$

IDZ019>023-271700-
SOUTHEAST IDAHO


CITY           SKY/WX    TMP DP  RH WIND       PRES   REMARKS
IDAHO FALLS    SUNNY     71  44  37 NW7       30.28S
POCATELLO      SUNNY     71  36  27 CALM      30.26S
REXBURG        SUNNY     67  42  40 NE5       30.30S
$$

IDZ006-010-011-018-031-032-271700-
CENTRAL IDAHO MOUNTAINS


CITY           SKY/WX    TMP DP  RH WIND       PRES   REMARKS
MCCALL         SUNNY     67  42  40 VRB3      30.28S
HAILEY         MOSUNNY   72  34  25 NW7       30.31F
STANLEY          N/A     57  29  34 N3        30.43F
SALMON         SUNNY     64  37  36 CALM      30.28F
CHALLIS        SUNNY     66  38  35 NE5       30.34S
$$

IDZ002-004-006-007-026-271700-
NORTHERN IDAHO


CITY           SKY/WX    TMP DP  RH WIND       PRES   REMARKS
LEWISTON       SUNNY     72  45  37 N5        30.15S
LOWELL           N/A     62  47  57 CALM      30.20F
COEUR D`ALENE  SUNNY     70  50  49 E14       30.20S
MULLAN PASS    SUNNY     62  40  44 VRB5      30.37R
$$


USA.gov is the U.S. government's official web portal to all federal, state and local government web resources and services.